Preview of NWS' New Version of Forecast
This preview is not operational and should not be used for support decisions.
Latest weather observations around

Amarillo, Amarillo International Airport (KAMA)

Using English Units (Switch to International System of Units)
Date/ Time (CDT) Wind (mph) Vis. (mi) Weather Sky Cond. Temp (°F) Rel. Humidity Wind Chill (°F) Heat Index (°F) Pressure Precip. (in)
Air Dwpt 6 hour Altimeter (inHg) Sea level (inHg) 1 hr 3 hr 6 hr
Max Min
Sep 17 11:53 S 18 10 Clear CLR 84 56     38%   83 30.08 29.91      
Sep 17 10:53 S 22 10 Clear and Windy CLR 81 56     42%   81 30.08 29.92      
Sep 17 09:53 S 17 10 Clear CLR 76 57     52%   76 30.07 29.91      
Sep 17 08:53 S 10 10 Clear CLR 70 56     61%     30.07 29.92      
Sep 17 07:53 S 11 10 Clear CLR 66 56     70%     30.06 29.92      
Sep 17 06:53 S 11 10 Clear CLR 66 56     70%     30.05 29.89      
Sep 17 05:53 S 9 10 Clear CLR 65 55     70%     30.05 29.89      
Sep 17 04:53 S 9 10 Clear CLR 67 55     66%     30.05 29.89      
Sep 17 03:53 SSE 8 10 Mostly Cloudy BKN100 65 55     70%     30.05 29.89      
Sep 17 02:53 S 11 10 Partly Cloudy SCT110 69 56     63%     30.06 29.88      
Sep 17 01:53 S 13 10 Partly Cloudy SCT110 71 55     57%   71 30.06 29.89      
Sep 17 00:53 S 14 10 Clear CLR 72 55     55%   71 30.06 29.9      
Sep 16 23:53 SSE 10 10 Clear CLR 72 54     53%   71 30.06 29.89      
Sep 16 22:53 SSE 15 10 Clear CLR 75 54     48%   74 30.06 29.89      
Sep 16 21:53 SSE 14 10 Clear CLR 75 54     48%   74 30.05 29.89      
Sep 16 20:53 SSE 13 10 Clear CLR 78 53     42%   78 30.04 29.88      
Sep 16 19:53 S 15 10 Clear CLR 80 53     39%   80 30.04 29.89      
Sep 16 18:53 S 20 10 Mostly Clear and Windy FEW070 84 51     32%   82 30.04 29.88      
Sep 16 17:53 S 18 10 Clear CLR 86 52     31%   84 30.04 29.88      
Sep 16 16:53 SSE 21 10 Partly Cloudy and Windy SCT065 SCT080 85 54     35%   83 30.05 29.9      
Sep 16 15:53 S 17 10 Mostly Clear FEW070 87 51     29%   85 30.06 29.9      
Sep 16 14:53 S 21 10 Clear and Windy CLR 89 52     28%   87 30.08 29.92      
Sep 16 13:53 S 13 10 Clear CLR 86 52     31%   84 30.11 29.94      
Sep 16 12:53 S 21 10 Mostly Clear and Windy FEW065 84 52     33%   82 30.13 29.96      
Sep 16 11:53 SW 16 10 Clear CLR 85 53     34%   83 30.15 29.99      
Sep 16 10:53 SW 16 10 Clear CLR 82 54     38%   81 30.16 30      
Sep 16 09:53 SSW 14 10 Clear CLR 77 54     45%   77 30.17 30.01      
Sep 16 08:53 SSW 11 10 Clear CLR 72 54     53%   71 30.16 30.01      
Sep 16 07:53 S 9 8 Clear CLR 66 54     65%     30.16 30.01      
Sep 16 06:53 SSE 9 10 Clear CLR 66 54     65%     30.15 29.99      
Sep 16 05:53 SE 7 10 Clear CLR 64 54     70%     30.14 29.99      
Sep 16 04:53 SSE 7 10 Clear CLR 65 53     65%     30.14 29.98      
Sep 16 03:53 SSE 13 10 Clear CLR 69 52     54%     30.14 29.98      
Sep 16 02:53 SSE 6 10 Mostly Clear FEW085 67 52     59%     30.16 29.99      
Sep 16 01:53 SSE 10 10 Clear CLR 70 52     53%     30.15 29.98      
Sep 16 00:53 SSE 11 10 Clear CLR 70 52     53%     30.14 29.97      
Sep 15 23:53 SSE 10 10 Clear CLR 71 52     51%   70 30.14 29.97      
Sep 15 22:53 SSE 10 10 Clear CLR 72 51     48%   71 30.14 29.98      
Sep 15 21:53 SSE 11 10 Clear CLR 73 50     44%   72 30.14 29.98      
Sep 15 20:53 SSE 13 10 Clear CLR 78 49     36%   77 30.11 29.96      
Sep 15 19:53 S 13 10 Clear CLR 80 48     33%   79 30.11 29.96      
Sep 15 18:53 S 15 10 Clear CLR 83 48     30%   81 30.11 29.96      
Sep 15 17:53 S 14 10 Clear CLR 84 49     30%   82 30.11 29.96      
Sep 15 16:53 S 15 10 Clear CLR 86 48     27%   83 30.12 29.96      
Sep 15 15:53 S 14 10 Mostly Cloudy FEW080 BKN100 86 49     28%   83 30.13 29.97      
Sep 15 14:53 S 13 10 Mostly Clear FEW075 89 52     28%   87 30.15 29.98      
Sep 15 13:53 S 20 10 Mostly Clear and Windy FEW070 87 53     31%   85 30.18 30.01      
Sep 15 12:53 S 15 10 Partly Cloudy SCT065 88 53     30%   86 30.19 30.02      
Sep 15 11:53 SSW 18 10 Clear CLR 86 54     33%   84 30.2 30.03      
Sep 15 10:53 SSW 11 10 Clear CLR 81 54     39%   81 30.21 30.05      
Sep 15 09:53 SSW 16 10 Clear CLR 77 54     45%   77 30.21 30.05      
Sep 15 08:53 S 11 10 Clear CLR 67 56     68%     30.2 30.06      
Sep 15 07:53 S 7 10 Clear CLR 64 56     75%     30.2 30.05      
Sep 15 06:53 S 10 10 Clear CLR 64 56     75%     30.2 30.05      
Sep 15 05:53 S 9 10 Clear CLR 65 56     73%     30.19 30.03      
Sep 15 04:53 S 8 10 Clear CLR 65 56     73%     30.19 30.03      
Sep 15 03:53 S 10 10 Clear CLR 68 56     65%     30.19 30.02      
Sep 15 02:53 S 9 10 Clear CLR 68 56     65%     30.2 30.03      
Sep 15 01:53 S 11 10 Clear CLR 69 56     63%     30.19 30.02      
Sep 15 00:53 S 10 10 Clear CLR 70 57     63%     30.2 30.03      
Sep 14 23:53 S 14 10 Clear CLR 72 56     57%   72 30.2 30.03      
Sep 14 22:53 S 14 10 Clear CLR 73 56     55%   73 30.2 30.04      
Sep 14 21:53 S 13 10 Clear CLR 76 56     50%   76 30.18 30.03      
Sep 14 20:53 S 13 10 Clear CLR 77 55     47%   77 30.17 30.02      
Sep 14 19:53 S 15 10 Clear CLR 81 55     41%   81 30.16 30.01      
Sep 14 18:53 S 21 10 Clear and Windy CLR 84 55     37%   83 30.15 29.99      
Sep 14 17:53 S 17 10 Clear CLR 88 55     33%   86 30.14 29.97      
Sep 14 16:53 S 15 10 Clear CLR 89 55     32%   87 30.14 29.98      
Sep 14 15:53 S 17 10 Clear CLR 89 55     32%   87 30.15 29.98      
Sep 14 14:53 S 16 10 Mostly Clear FEW060 89 56     33%   87 30.18 30.01      
Sep 14 13:53 SSW 13 10 Mostly Cloudy BKN055 89 58     35%   88 30.2 30.03      
May 15 09:53   10 Partly Cloudy SCT026 70 54     57%     30.07 29.94      
May 15 05:53 NE 9 10 Mostly Cloudy BKN019 64 56     75%     30 29.83      
May 14 15:53 W 8 10 Clear CLR 90 38     16%   86 29.92 29.76      
May 14 03:53 SE 15 10 Clear CLR 63 60     90%     29.94 29.77      
May 13 16:53 SSW 17 10 Clear CLR 93        %     29.89 29.71      
May 13 01:53 S 17 10 Clear CLR 76 56     50%   76 29.94 29.75      
May 12 17:53 SSW 16 10 Clear CLR 95        %     29.83 29.64      
May 11 19:53 SW 21 10 Clear and Windy CLR 91 23     8%   86 29.7 29.52      
Jun 12 03:53 SSE 14 10 Clear CLR 73 63     71%   73 29.89 29.69      
Jun 11 22:53 SSE 20 10 Clear and Windy CLR 82 62     51%   83 29.86 29.67      
Jun 11 20:53 SSE 20 10 Clear and Windy   87 61     42%   87 29.81 29.63      
Jun 11 07:53 S 17 10 Clear CLR 70 62     76%     29.85 29.67      
Jun 10 14:53 S 22 10 Clear and Windy CLR 97 51     21%   94   29.59      
Jun 10 10:53   10 Clear CLR 84 59     43%   84 29.83 29.65      
Jun 08 22:53 S 13 10 Clear CLR 59 53     81%     29.94 29.81      
Jun 08 14:53 S 16 10 Clear CLR 87 56     35%   86 29.97 29.81      
Jun 08 13:53 SSW 10 10 Clear CLR 86 56     36%   85 30.01 29.85      
Jun 07 11:53 SE 8 10 Clear CLR 77 57     50%   77 30.16 30.01      
Jun 05 20:53 ENE 9 10 Clear CLR 73 51     46%   72 30 29.85      
Jun 05 18:53 NE 11 10 Clear CLR 84 48     29%   82   29.81